Location: Bazugues
(43.4465°N, 0.3432°E)
Time: 18:13:22
(UTC+00:00)

SL-16 R/B - Visible Passes

Search period start: 11 April 2026 00:00
Search period end: 21 April 2026 00:00
Orbit: 839 x 848 km, 71.0° (Epoch: 11 April)

Date Brightness Start Highest point End Pass type
(mag) Time Alt. Az. Time Alt. Az. Time Alt. Az.
11 Apr 4.3 21:58:05 16° NE 21:58:05 16° NE 21:59:12 10° NE visible
11 Apr 3.9 23:39:53 30° NNW 23:39:53 30° NNW 23:43:22 10° N visible
12 Apr 4.2 21:43:19 17° NE 21:43:19 17° NE 21:44:41 10° NE visible
12 Apr 3.7 23:25:06 32° NNW 23:25:06 32° NNW 23:28:54 10° N visible
13 Apr 4.0 21:28:27 18° NE 21:28:27 18° NE 21:30:09 10° NE visible
13 Apr 3.5 23:10:14 35° NNW 23:10:14 35° NNW 23:14:27 10° NNE visible
14 Apr 3.8 21:13:28 21° ENE 21:13:28 21° ENE 21:15:37 10° NE visible
14 Apr 3.3 22:55:15 39° NW 22:55:15 39° NW 22:59:58 10° NNE visible
15 Apr 3.5 20:58:20 23° ENE 20:58:20 23° ENE 21:01:05 10° NE visible
15 Apr 3.2 22:40:06 42° WNW 22:40:07 42° WNW 22:45:30 10° NNE visible
16 Apr 3.3 20:42:58 26° E 20:42:58 26° E 20:46:32 10° NE visible
16 Apr 3.1 22:24:43 41° W 22:25:36 44° WNW 22:31:02 10° NNE visible
17 Apr 3.0 20:27:15 28° ESE 20:27:16 28° ESE 20:32:00 10° NE visible
17 Apr 3.1 22:08:59 32° WSW 22:11:06 45° WNW 22:16:33 10° NNE visible
18 Apr 3.1 20:10:54 22° SE 20:12:48 27° ESE 20:17:27 10° NE visible
18 Apr 3.1 21:52:33 18° SW 21:56:36 47° WNW 22:02:05 10° NNE visible
19 Apr 3.1 19:53:48 10° SSE 19:58:20 25° ESE 20:02:54 10° NE visible
19 Apr 3.0 21:36:38 10° SW 21:42:05 49° WNW 21:47:36 10° NNE visible
19 Apr 5.2 23:27:14 10° NW 23:27:39 10° NW 23:28:06 10° NNW visible
20 Apr 3.2 19:39:25 10° SSE 19:43:52 24° ESE 19:48:21 10° NE visible
20 Apr 3.0 21:22:05 10° SW 21:27:35 51° WNW 21:33:07 10° NNE visible
20 Apr 5.2 23:12:05 10° NW 23:13:07 10° NW 23:14:09 10° NNW visible
